Simultaneous Nadir Overpasses (SNOs) Predictions

Prediction of SNOs between AURA and NPP Satellite Orbit:

Table of predicted SNOs for the next 14.0 days since TLE Epoch: 9/6/2014
Index Date (AURA) Time (AURA) Lat,Lon (AURA) SZA (AURA ) Date (NPP) Time (NPP) Lat,Lon (NPP) SZA (NPP ) Distance(km) Time Diff (sec)
1 09/08/2014 05:40:57 74.44, -28.20 92.76 09/08/2014 05:39:47 74.44, -28.15 92.81 1.68 70
2 09/08/2014 06:30:06 -75.39, 141.89 88.27 09/08/2014 06:30:13 -75.38, 141.84 88.26 1.63 7
3 09/10/2014 21:57:20 74.77, 88.49 93.33 09/10/2014 21:56:40 74.77, 88.50 93.37 0.54 40
4 09/10/2014 22:46:29 -75.71,-101.32 87.69 09/10/2014 22:47:06 -75.70,-101.40 87.70 2.31 37
5 09/13/2014 14:13:37 75.32,-154.19 93.68 09/13/2014 14:13:27 75.33,-154.11 93.67 2.30 10
6 09/13/2014 15:02:47 -76.19, 16.04 87.28 09/13/2014 15:03:54 -76.19, 16.04 87.34 0.06 67
7 09/16/2014 05:41:03 -74.15, 151.12 84.14 09/16/2014 05:40:07 -74.15, 151.07 84.07 1.76 56
8 09/16/2014 06:29:59 75.63, -37.42 94.29 09/16/2014 06:30:20 75.63, -37.38 94.26 1.08 21
9 09/18/2014 21:57:18 -74.80, -91.42 83.88 09/18/2014 21:56:53 -74.80, -91.42 83.85 0.18 25




NCC Satellite Simultaneous Nadir Overpasses (SNOs) Prediction Service
